Regional Weather Roundup
Issued by NWS Kansas City/Pleasant Hill, MO

Home | Current Version | Previous Version | Text Only | Print | Product List | Glossary On
Versions: 1 2 3 4 5 6 7 8 9 10 11 12 13 14 15 16 17 18 19 20 21 22 23 24 25 26 27 28 29 30 31 32 33 34 35 36 37 38 39 40 41 42 43 44 45 46 47 48 49 50
000
ASUS43 KEAX 191411
RWREAX

WEATHER ROUNDUP FOR EASTERN KANSAS AND NORTHWEST MISSOURI
NATIONAL WEATHER SERVICE KANSAS CITY/PLEASANT HILL MO
900 AM CDT FRI SEP 19 2014

KSZ040-057-103>105-MOZ028-029-037-043-191500-
...KANSAS CITY METROPOLITAN AREA...

CITY           SKY/WX    TMP DP  RH WIND       PRES   REMARKS
K.C. INTL      CLOUDY    63  61  93 S10       30.03S
K.C. DOWNTOWN  CLOUDY    65  62  90 S7        30.03S FOG
LEES SUMMIT    CLOUDY    62  60  93 SE5       30.05S FOG
OLATHE - IXD   FOG       62  62 100 SE9       30.04R VSB 3/4
OLATHE - OJC   FOG      N/A N/A N/A S9        30.03S VSB 1/2
LAWRENCE       FOG       63  62  97 SE7       30.03R VSB 1/4

$$

MOZ001>008-011>017-020>025-030>033-038>040-044>046-053-054-191500-
...NORTHERN AND CENTRAL MISSOURI...

CITY           SKY/WX    TMP DP  RH WIND       PRES   REMARKS
ST. JOSEPH     CLOUDY    63  62  97 S10       30.02S FOG
MOSBY          FOG       61  61 100 SE6       30.04S VSB 3/4
WARRENSBURG    CLOUDY    63  61  94 SE5       30.05S FOG
WHITEMAN AFB   CLOUDY    62  61  96 SE7       30.05S FOG
CLINTON        CLOUDY    63  63 100 SE6       30.05S FOG
SEDALIA        MOSUNNY   63  61  93 SE7       30.07R FOG
WARSAW         NOT AVBL
MARSHALL       MOSUNNY   63  63 100 SE6       30.09R FOG
CHILLICOTHE      N/A     61  60  97 SE6       30.07F
MOBERLY        SUNNY     63  55  77 SE6       30.09S
KIRKSVILLE     NOT AVBL

$$

MOZ041-047>049-056>058-063>065-088>090-097-191500-
...EASTERN AND SOUTHERN MISSOURI...

CITY           SKY/WX    TMP DP  RH WIND       PRES   REMARKS
ST. LOUIS INTL MOSUNNY   62  54  74 E7        30.11S
SPIRIT OF STL  MOSUNNY   62  56  80 CALM      30.10R
COLUMBIA       SUNNY     62  57  83 SE6       30.09R
JEFFERSON CITY SUNNY     60  57  89 SE3       30.09R
MEXICO         SUNNY    N/A N/A N/A SE5       30.10R
HANNIBAL       SUNNY     64  55  72 SE8       30.10S
ROLLA          SUNNY     61  55  81 SE10      30.08R
LEBANON        SUNNY     59  59 100 SE8       30.08S
OSAGE BEACH    SUNNY     59  55  88 SE5       30.07F
SPRINGFIELD    SUNNY     65  61  87 SE10      30.05S
BRANSON        PTSUNNY   66  63  88 SE8       30.07S
NEVADA         CLOUDY    64  63  94 S3        30.06R
JOPLIN         SUNNY     67  62  84 SE7       30.03S
WEST PLAINS    SUNNY     61  56  83 E3        30.09S

$$

IAZ060-094-KSZ022-034>040-054-083-096-NEZ052-066-093-191500-
...KANSAS...SOUTHEAST NEBRASKA AND IOWA...

CITY           SKY/WX    TMP DP  RH WIND       PRES   REMARKS
TOPEKA         CLOUDY    65  64  97 SE7       30.01S FOG
MANHATTAN      SUNNY     68  65  90 S3        29.98S
EMPORIA        FOG       64  64 100 S10       30.01R VSB 1/4
CHANUTE        CLOUDY    65  64  97 S7        30.03R
WICHITA        MOSUNNY   69  65  86 S9        29.99R
OMAHA          CLOUDY    64  60  87 S18       29.93S FOG
LINCOLN        CLOUDY    67  63  87 S16       29.93F
FALLS CITY     CLOUDY    64  62  93 SE12      29.99R
LAMONI         FOG       59  58  96 S12G17    30.03F VSB 1/2
DES MOINES     PTSUNNY   62  56  80 S13       30.00F

$$




USA.gov is the U.S. government's official web portal to all federal, state and local government web resources and services.